This is the latest recevied weather packets stored in our database for station/object N8HON. If no packets are shown the sender has not sent any weather packets the latest 10 day(s).
| Time | Temp. | Humidity | Pressure | Rain* | Wind** | Luminosity | Snow |
|---|---|---|---|---|---|---|---|
| 1777639420 | 5.56° C | 87% | 1013.1 hPa | 0 mm | - | 204 W/m² | - |
| 1777639119 | 5.56° C | 87% | 1013.1 hPa | 0 mm | - | 150 W/m² | - |
| 1777638817 | 5.56° C | 87% | 1012.9 hPa | 0 mm | - | 148 W/m² | - |
| 1777638517 | 5° C | 90% | 1012.9 hPa | 0 mm | - | 154 W/m² | - |
| 1777638215 | 4.44° C | 90% | 1012.7 hPa | 0 mm | - | 129 W/m² | - |
| 1777637911 | 4.44° C | 90% | 1013.1 hPa | 0 mm | - | 122 W/m² | - |
| 1777637607 | 4.44° C | 89% | 1013 hPa | 0 mm | - | 115 W/m² | - |
| 1777637304 | 3.89° C | 90% | 1013.1 hPa | 0 mm | - | 103 W/m² | - |
| 1777637001 | 3.89° C | 91% | 1013 hPa | 0 mm | - | 123 W/m² | - |
| 1777636696 | 3.33° C | 93% | 1013 hPa | 0 mm | - | 99 W/m² | - |
| 1777636393 | 2.78° C | 93% | 1013 hPa | 0 mm | - | 84 W/m² | - |
| 1777636089 | 2.78° C | 94% | 1013.2 hPa | 0 mm | - | 80 W/m² | - |
| 1777635784 | 2.22° C | 95% | 1012.9 hPa | 0 mm | - | 70 W/m² | - |
| 1777635481 | 2.22° C | 95% | 1013 hPa | 0 mm | - | 61 W/m² | - |
| 1777635178 | 2.22° C | 95% | 1013 hPa | 0 mm | - | 52 W/m² | - |
| 1777634874 | 1.67° C | 95% | 1013 hPa | 0 mm | - | 49 W/m² | - |
| 1777634571 | 1.67° C | 95% | 1013.1 hPa | 0 mm | - | 46 W/m² | - |
| 1777634268 | 1.67° C | 95% | 1012.8 hPa | 0 mm | - | 42 W/m² | - |
| 1777633964 | 1.67° C | 95% | 1013 hPa | 0 mm | - | 37 W/m² | - |
| 1777633662 | 1.67° C | 96% | 1012.8 hPa | 0 mm | - | 35 W/m² | - |
| 1777633360 | 1.67° C | 96% | 1012.9 hPa | 0 mm | - | 30 W/m² | - |
| 1777633057 | 1.67° C | 96% | 1012.8 hPa | 0 mm | - | 26 W/m² | - |
| 1777632753 | 1.11° C | 96% | 1012.9 hPa | 0 mm | - | 21 W/m² | - |
| 1777632449 | 1.67° C | 96% | 1013 hPa | 0 mm | - | 16 W/m² | - |
| 1777632147 | 1.67° C | 97% | 1013 hPa | 0 mm | - | 11 W/m² | - |
* Rain latest hour (hover to see other rain measurements)
** Current wind speed in m/s (hover to see current wind gust speed)